Location: Newark
(42.7133°N, 87.7910°W)
Time: 00:52:05
(UTC+00:00)

Tiros 1 - Pass Details

Date: 21 September 2019
Orbit: 630 x 664 km, 48.4° (Epoch: 13 October)

Event Time Altitude Azimuth Distance (km) Brightness Sun altitude
Rises 22:49:56 0° 295° (WNW) 2,949 11.6 10.3°
Reaches altitude 10° 22:52:18 10° 298° (WNW) 2,033 10.7 9.9°
Maximum altitude 22:56:57 64° 20° (NNE) 703 7.4 9.0°
Drops below altitude 10° 23:01:33 10° 103° (ESE) 2,010 9.1 8.2°
Sets 23:03:52 0° 106° (ESE) 2,913 9.9 7.7°
